sat.trackr.live / text

‹ back to catalog

STARLINK-35665

NORAD 66390 · 2025-257L

PAYLOAD ACTIVE UNKNOWN

§ Identity

Operator
Country
US
Launch date
2025-11-09
Launch site
AFETR
Launch vehicle
Mass (kg)
RCS (m²)

Purposes: comms

External: N2YO · Heavens-Above · Gunter

§ Orbital elements

Epoch: 2026-05-25T05:31:12.982368Z

Period
94.10 min
Inclination
53.1575°
Eccentricity
0.0000992
Mean motion
15.30210346 rev/d
Perigee alt
474.5 km
Apogee alt
475.9 km
Semi-major
6,853.3 km
B*
5.3935e-4
RAAN
221.3792°
Arg perigee
80.5589°
Mean anomaly
279.5524°
Rev number
3,155

§ Raw data

STARLINK-356651 66390U 25257L   26145.23001137  .00015654  00000+0  53935-3 0  99982 66390  53.1575 221.3792 0000992  80.5589 279.5524 15.30210346 31556

JSON: /api/v1/satellites/66390 · /tle

For live sub-satellite position, see the globe view (requires WebGL).

§ Visibility from observer

Set your observer location to see the next 7 days of passes ≥ 10°. The values pass through the URL so the page stays shareable.

No JS? Fill the form by hand. The geolocation button needs JavaScript.